Weather in Ovchinnikovo

Russia / Novosibirsk Oblast     55°11′54″N   81°41′00″E
temp.,
°C
wind,
m/s
gust,
m/s
humid.,
%
clouds,
%
prec.,
mm/h
press.,
hPa
HPBL,
m
20 june, sun
sun2001:00+8wnw5773100 0.0 1006766
04:00+8nw5765100 0.0 10071070
07:00+7wnw46775 0.0 1008316
10:00+11wnw4669100 0.1 10071244
13:00+13w4655100 0.2 10071465
16:00+14wsw455894 0.1 10071488
19:00+13sw487187 0.8 1007729
22:00+9sse46795 0.0 100789
21 june, mon
mon2101:00+7se411905 0.0 1006191
04:00+7se513878 0.0 1004248
07:00+9ese6117799 0.0 1004343
10:00+9ese71385100 0.4 1003667
13:00+9se81495100 4.9 1004818
16:00+10sse5995100 1.5 1005521
19:00+14ssw35787 2.6 1005888
22:00+10wsw128840 0.4 100610
22 june, tue
tue2201:00+8ssw118999 0.4 100710
04:00+7ne118954 0.0 100610
07:00+9nnw1189100 0.0 100718
10:00+11nnw3388100 0.0 1007208
13:00+15nw3364100 0.1 1007902
16:00+16nw556355 0.4 10081444
19:00+13nnw568639 2.1 1009712
22:00+9nw489692 1.2 1010237
23 june, wed
wed2301:00+9nw4895100 1.2 1010239
04:00+8wnw3695100 0.0 1011196
07:00+8w3694100 0.0 1012182
10:00+9w3592100 0.1 1012257
13:00+14wnw2368100 0.8 10121014
16:00+13w2378100 2.1 1012450
19:00+14nw127175 3.3 1012227
22:00+10sse11805 0.1 101310
24 june, thu
thu2401:00+7n228499 0.1 101311
04:00+6n2288100 0.0 101314
07:00+9n1185100 0.0 101357
10:00+12nw2273100 0.1 1012399
13:00+15wnw3358100 0.2 10121257
16:00+16nw4459100 0.4 10111368
19:00+15wnw336341 0.4 10121149
22:00+10nw228495 0.3 101220